Location: Les Jeannots
(43.2262°N, 5.5774°E)
Time: 19:09:08
(UTC+00:00)

DELTA 2 R/B (1) - Pass Details

Date: 05 July 2020
Orbit: 790 x 803 km, 39.6° (Epoch: 12 August)

Event Time Altitude Azimuth Distance (km) Brightness Sun altitude
Rises 22:21:02 0° 249° (WSW) 3,285 6.8 -21.5°
Reaches altitude 10° 22:23:33 10° 244° (WSW) 2,359 6.0 -21.7°
Maximum altitude 22:28:58 53° 169° (S) 968 3.6 -22.0°
Enters shadow 22:30:05 46° 129° (SE) 1,067 3.8 -22.0°
Exits shadow 22:36:28 - 90° (E) 3,130 6.5 -22.4°
Sets 22:36:56 0° 89° (E) 3,302 6.6 -22.4°
